Regional Weather Roundup
Issued by NWS Cleveland, OH

Home | Current Version | Previous Version | Graphics & Text | Print | Product List | Glossary Off
Versions: 1 2 3 4 5 6 7 8 9 10 11 12 13 14 15 16 17 18 19 20 21 22 23 24 25 26 27 28 29 30 31 32 33 34 35 36 37 38 39 40 41 42 43 44 45 46 47 48 49 50

000
ASUS41 KCLE 190712
RWRCLE
OHIO REGIONAL WEATHER ROUNDUP
NATIONAL WEATHER SERVICE WILMINGTON, OH
300 AM EDT THU OCT 19 2017

NOTE: "FAIR" INDICATES FEW OR NO CLOUDS BELOW 12,000 FEET WITH NO
SIGNIFICANT WEATHER AND/OR OBSTRUCTIONS TO VISIBILITY.

OHZ001>008-015>018-024>027-034-035-043-044-190800-
   NORTHWEST OHIO

CITY           SKY/WX    TMP DP  RH WIND       PRES   REMARKS
DEFIANCE       FAIR      51  42  71 SW8       30.12F
FINDLAY        FAIR      49  41  74 S10       30.13F
TOLEDO EXPRESS FAIR      54  45  71 SW7       30.11F
TOLEDO EXEC    FAIR      53  43  68 SW9       30.12F
LIMA           FAIR      52  44  74 S8        30.15F
$$

OHZ009>014-019>023-028>033-038-089-190800-
   NORTHEAST OHIO

CITY           SKY/WX    TMP DP  RH WIND       PRES   REMARKS
CLE-HOPKINS    FAIR      55  42  61 S10       30.17F
CLE-LAKEFRONT  FAIR      59  41  51 SW15G23   30.15S
CUY CO. ARPT   NOT AVBL
LORAIN-ELYRIA  FAIR      48  37  65 SW7       30.16F
ASHTABULA      FAIR      49  41  74 S7        30.17F
AKRON-CANTON   FAIR      47  38  71 S7        30.19S
WOOSTER        FAIR      47  41  80 SW5       30.19S
MANSFIELD      FAIR      50  42  74 SW8       30.18S
YOUNGSTOWN     FAIR      50  39  66 S6        30.19R
$$

OHZ042-051>053-060>062-070>072-077>081-190800-
  SOUTHWEST OHIO

CITY           SKY/WX    TMP DP  RH WIND       PRES   REMARKS
CINC-COVINGTON FAIR      47  44  90 S8        30.19F
CINC-LUNKEN    FAIR      42  42 100 CALM      30.22S
HAMILTON       FAIR      40  39  97 CALM      30.21S
DAYTON         FAIR      52  45  77 S8        30.19F
WRIGHT-PAT AFB FAIR      49  44  82 CALM      30.18F
DAYTON GENERAL FAIR      47  42  83 S7        30.19S
WILMINGTON     FAIR      48  44  86 S5        30.20F
$$

OHZ036-037-039>041-045>050-054>059-063>069-073>076-082>088-190800-
  CENTRAL AND SOUTHEAST OHIO

CITY           SKY/WX    TMP DP  RH WIND       PRES   REMARKS
COLUMBUS       FAIR      46  45  96 CALM      30.20S
OSU AIRPORT    FAIR      47  43  86 SE3       30.19F
BOLTON FIELD   FAIR      48  43  82 S3        30.20F
RICKENBACK AFB FAIR      45  42  92 CALM      30.20S
NEWARK         FAIR      41  39  93 CALM      30.20S
MARION         FAIR      46  40  79 S8        30.18F
LANCASTER      FAIR      39  38  96 CALM      30.21S
ZANESVILLE     FAIR      43  40  89 CALM      30.22R
NEW PHILLY     FAIR      41  39  93 CALM      30.22R
$$




USA.gov is the U.S. government's official web portal to all federal, state and local government web resources and services.